Wetbulb
58.82 58.41 58.52 58.64 58.66 58.63 58.51 58.30 57.83 58.74 59.28 59.15 58.90 58.44 57.94 57.91 57.88 57.78 58.94 59.77 59.86 59.81 60.12 60.20 59.90 59.25 53.68 47.05 47.17 56.94 64.80 64.80 59.04 56.76 51.37 48.49 45.37 44.53 41.51 42.13 42.69 41.04 42.51 45.21 45.82 45.66 44.98
57.90 58.18 58.15 58.30 58.21 58.22 58.08 57.78 57.67 58.38 58.61 58.48 58.24 58.10 57.70 57.55 57.45 57.51 58.97 59.51 59.79 59.76 60.05 59.96 59.52 58.38 48.92 41.48 50.20 56.30 54.69 54.63 54.68 53.04 49.74 48.52 46.90 46.50 43.18 42.55 40.62 41.89 42.70 43.50 45.07 45.18 45.07
57.60 57.97 57.94 57.74 57.56 57.38 57.17 57.10 57.42 57.91 58.01 57.87 57.52 57.03 57.10 57.64 57.73 58.35 58.93 59.14 59.54 59.80 60.00 59.66 59.37 55.06 47.35 45.54 50.97 51.78 53.54 51.79 52.47 52.03 48.77 49.45 49.01 45.32 43.85 42.11 45.00 42.93 40.36 41.47 42.69 43.43 43.66
57.00 57.15 57.00 57.11 57.04 56.67 56.59 56.49 56.51 57.05 57.08 56.65 56.36 56.00 56.23 56.71 57.56 58.05 58.42 58.47 58.74 59.03 59.36 59.40 58.68 51.33 42.57 52.18 49.19 50.45 50.52 49.69 50.99 51.42 50.64 50.20 50.21 46.90 44.01 44.15 43.55 39.04 37.45 34.26 41.65 43.02 43.57
56.41 55.96 55.84 56.17 56.17 56.15 55.83 55.79 56.07 56.15 56.19 55.75 55.37 54.98 55.31 55.91 56.91 57.67 57.89 57.81 57.75 58.67 58.67 58.63 50.36 46.81 42.15 53.75 48.85 49.58 50.41 48.96 48.94 48.95 48.97 50.80 49.15 44.11 43.61 37.87 34.79 35.84 31.55 34.35 38.93 42.84 41.97
55.83 55.50 55.41 55.56 55.19 55.08 55.10 55.18 54.95 54.94 54.87 54.21 53.95 53.62 54.10 55.25 56.52 57.45 57.67 57.07 58.26 57.24 56.15 54.88 51.94 42.74 46.72 45.55 48.95 49.68 49.69 50.70 47.76 46.89 46.63 44.88 42.42 38.27 37.30 34.71 29.47 32.16 32.54 35.06 35.60 40.84 40.34
56.37 55.82 55.13 54.23 54.02 54.03 54.09 53.91 53.72 53.78 53.58 53.15 52.89 53.47 54.09 54.68 55.59 57.16 54.24 50.98 47.93 45.78 47.38 43.92 44.52 45.05 47.43 49.03 50.69 48.79 49.84 48.61 47.63 44.50 38.51 41.39 36.16 33.62 36.14 38.35 38.16 37.13 34.69 34.14 37.27 41.87 39.29
55.51 54.79 53.69 53.22 53.03 53.01 52.91 52.87 52.85 52.89 52.77 52.44 52.26 53.14 53.58 53.96 54.86 57.00 53.04 47.84 46.44 46.94 42.10 48.90 47.98 46.66 49.00 49.15 45.02 47.50 49.76 43.55 42.36 38.16 40.19 38.35 34.43 39.91 41.38 40.85 39.05 38.03 35.59 34.87 38.51 41.48 38.99
54.07 53.15 52.71 52.36 52.30 52.11 52.04 52.10 52.18 52.36 52.22 51.83 51.70 52.71 53.29 53.63 54.53 53.04 49.24 48.11 51.94 50.81 42.43 46.95 48.86 48.45 46.33 48.13 44.79 45.05 46.65 43.94 40.63 38.10 38.72 35.43 39.56 43.88 41.65 40.01 38.42 37.56 35.16 34.87 36.32 38.91 37.86
52.27 52.00 51.70 51.47 51.33 51.23 51.23 51.32 51.43 51.58 51.36 51.02 51.08 51.55 52.48 52.88 52.54 51.37 48.39 52.60 52.81 51.32 36.27 41.09 43.68 46.26 47.62 47.29 42.83 49.18 47.83 44.98 41.62 38.89 39.28 38.28 43.37 42.09 40.85 38.57 39.18 34.03 39.77 39.65 37.86 34.60 29.39
51.18 50.98 50.81 50.75 50.57 50.47 50.47 50.55 50.72 50.74 50.50 50.35 50.37 50.99 51.60 52.50 50.07 49.40 51.25 53.67 52.36 48.88 22.46 42.85 43.38 50.06 47.58 43.86 44.14 44.31 47.17 44.56 39.21 40.24 38.87 37.55 39.14 38.49 38.43 40.41 40.45 38.08 40.60 38.39 36.92 33.47 30.69
50.23 50.17 50.16 49.87 49.71 49.49 49.43 49.65 49.87 49.87 49.75 49.84 49.93 50.47 51.36 53.13 51.70 51.95 53.70 53.02 50.60 36.52 23.19 40.32 43.35 42.37 41.61 42.84 44.11 43.97 43.42 44.66 43.91 40.28 40.06 38.75 41.91 40.62 40.12 40.52 40.38 40.62 37.23 36.44 34.38 31.60 25.39
49.54 49.02 48.82 48.76 48.71 48.66 48.79 48.93 49.00 49.14 49.10 49.36 50.11 50.87 50.11 51.80 49.88 53.70 53.16 49.43 32.26 25.49 39.17 38.46 40.32 42.50 41.26 40.25 41.01 40.96 39.33 36.38 34.82 30.83 31.03 36.75 38.56 41.27 42.00 37.15 37.68 37.30 33.03 26.01 25.02 24.42 25.35
48.79 48.75 48.34 48.22 48.12 48.14 48.33 48.44 48.63 48.68 48.43 49.55 50.52 51.95 53.00 55.05 54.23 52.76 50.32 39.84 26.07 34.53 35.50 42.13 41.03 41.20 38.81 40.66 40.53 40.09 37.32 34.45 37.70 36.08 32.82 30.62 30.55 37.75 40.16 39.44 35.30 33.49 33.92 27.20 22.91 22.96 25.10
48.32 48.20 48.02 47.83 47.75 47.84 48.02 48.10 48.14 48.05 49.02 49.41 49.98 45.89 51.06 51.64 53.98 51.74 44.01 32.31 30.77 36.03 39.91 38.63 38.71 33.04 34.19 38.17 38.10 38.06 36.38 36.20 38.44 38.79 33.45 32.11 32.44 38.37 38.88 40.00 40.12 33.71 30.51 36.53 30.50 28.36 24.72
47.83 47.65 47.45 47.57 47.61 47.45 47.53 47.71 47.73 48.60 49.03 49.65 42.42 46.18 47.04 52.14 52.57 49.03 39.65 37.36 37.24 41.80 42.08 40.86 33.61 36.68 32.54 35.38 34.92 35.46 34.42 34.13 35.54 39.13 38.92 35.97 31.43 39.19 37.84 38.59 36.91 35.62 37.18 30.08 29.82 23.94 21.78
47.79 47.81 47.58 47.24 46.99 46.89 47.01 47.17 47.52 48.11 49.32 49.26 42.06 42.78 47.36 49.51 50.83 43.43 34.89 35.34 39.46 42.20 42.33 39.29 36.59 35.49 34.79 34.06 34.95 35.02 35.85 35.31 37.63 37.02 38.60 36.53 32.24 32.40 34.38 32.99 33.55 32.87 32.14 32.68 32.16 29.19 23.93
47.38 47.61 47.44 46.93 46.80 46.79 46.85 46.81 47.23 47.95 48.99 43.97 40.16 35.83 47.52 48.00 38.72 37.09 33.28 36.66 40.48 38.99 39.68 39.03 38.28 37.74 36.21 34.49 33.71 33.39 34.51 35.87 37.74 35.95 33.20 36.41 34.16 28.74 31.01 36.00 37.99 36.63 35.64 35.64 30.50 26.50 26.87
48.28 48.83 47.84 47.18 46.95 46.55 46.73 46.71 46.77 47.31 48.05 39.82 36.30 36.19 42.80 40.74 28.39 25.42 28.68 30.65 38.18 35.02 35.57 34.47 34.54 35.09 34.32 31.82 26.71 32.58 34.82 38.49 37.78 33.64 31.90 35.16 31.38 26.40 30.20 32.23 34.72 33.87 30.46 29.65 31.17 34.10 28.17
47.04 46.69 46.79 47.25 47.62 46.54 46.29 47.38 47.31 47.82 47.94 41.10 34.84 27.92 29.77 31.89 28.59 24.26 23.72 27.01 27.86 32.85 31.80 30.11 32.09 34.43 27.09 25.22 30.02 25.92 23.95 30.74 31.30 31.81 36.33 36.15 31.37 28.76 23.31 26.05 30.17 27.81 23.02 22.57 27.27 25.60 19.45
47.10 47.57 47.52 46.81 46.81 46.74 46.27 46.87 46.80 47.22 47.15 37.54 31.59 28.73 27.80 21.77 24.89 25.60 25.63 27.48 26.78 24.34 29.55 29.86 27.84 25.16 22.98 20.36 21.63 21.00 24.57 25.76 28.70 30.71 32.44 33.23 23.91 27.09 26.96 26.33 25.65 18.23 16.14 15.78 15.40 14.09 14.30
48.33 48.56 48.10 48.39 47.81 46.92 46.49 45.99 46.29 46.58 44.26 33.10 26.72 24.25 27.98 26.31 28.05 25.32 26.97 23.59 24.36 25.52 26.36 25.67 23.96 25.32 24.68 21.11 22.83 19.91 22.50 22.48 22.33 25.19 22.90 24.77 12.89 20.45 17.27 23.94 25.14 12.10 13.28 12.86 10.84 9.98 12.40
47.35 47.17 46.75 46.67 47.27 47.39 46.45 46.10 45.33 45.22 41.24 30.01 31.31 32.22 28.19 27.20 23.56 22.30 22.25 23.84 24.87 26.23 27.30 28.98 26.45 23.96 22.64 25.11 26.75 27.06 26.91 26.63 26.10 23.90 23.00 21.47 17.92 9.19 5.34 21.32 18.93 13.01 8.25 9.24 7.67 7.21 8.72
45.64 45.78 45.60 45.72 45.74 46.47 47.08 46.48 46.07 44.83 42.43 33.26 31.81 30.06 24.65 22.62 23.54 23.35 25.31 26.27 25.37 25.84 23.99 27.35 27.27 24.35 28.15 30.92 30.19 28.65 26.35 25.75 25.36 25.13 26.66 22.00 24.51 21.55 7.56 18.32 7.33 7.35 12.64 9.42 5.95 6.91 7.87
44.69 45.47 45.47 45.54 45.37 45.26 45.73 46.19 46.83 45.77 44.66 35.74 34.85 31.21 25.81 21.86 23.80 23.83 24.66 24.15 24.61 25.53 24.08 25.30 27.98 28.68 29.76 27.55 22.61 20.98 20.69 25.06 27.21 27.70 25.90 25.95 23.88 9.40 6.30 5.74 5.69 6.78 7.99 6.22 3.31 0.92 7.19
43.83 43.50 44.27 45.17 44.88 44.77 44.90 45.33 45.60 46.55 44.63 36.98 35.76 35.75 29.44 22.93 22.54 27.02 23.80 23.91 20.98 20.15 21.33 25.32 30.03 30.68 28.29 25.76 24.21 10.71 13.98 19.01 18.62 22.05 24.11 22.67 19.39 14.31 5.55 -1.16 -3.46 0.35 7.68 11.28 10.46 -2.26 1.04
43.75 43.61 43.41 43.45 44.63 44.38 44.88 44.83 44.24 44.81 45.48 40.22 35.93 36.75 31.57 24.77 26.48 26.99 23.14 23.58 25.96 23.95 22.63 23.96 26.26 25.57 28.64 24.28 18.62 13.01 13.88 22.69 12.83 10.03 10.56 10.70 5.43 -1.61 2.57 -6.23 -5.43 2.48 6.24 8.19 -4.05 -4.53 0.45
43.43 43.20 43.12 42.95 43.20 44.13 44.21 44.75 44.33 43.84 44.84 41.12 37.19 37.32 32.20 28.19 27.81 30.27 30.93 25.48 26.43 25.24 21.13 24.94 23.17 24.47 23.47 18.07 20.54 19.15 16.45 16.99 9.94 8.91 7.18 -2.18 -6.20 -2.52 -3.47 -7.33 -5.29 4.07 0.70 -1.63 -2.86 -5.09 -5.74
42.74 42.91 42.33 42.28 41.99 42.40 42.98 43.61 44.14 43.43 43.55 43.27 36.72 40.27 40.08 32.33 27.53 33.24 33.46 34.10 33.13 32.00 27.70 26.81 24.13 24.74 26.00 20.68 19.40 16.51 7.43 14.43 12.35 -0.05 9.42 3.81 1.91 0.98 -0.87 -1.80 -0.01 1.36 1.26 -1.61 0.01 -1.14 -2.30
MSLP
1018.66 1018.26 1017.86 1017.35 1016.94 1016.54 1016.09 1015.80 1015.46 1014.91 1014.42 1014.00 1013.60 1013.23 1012.87 1012.44 1012.02 1011.80 1011.63 1011.46 1011.34 1011.27 1011.33 1011.30 1011.30 1011.20 1011.22 1011.13 1009.65 1008.66 1008.73 1008.89 1009.19 1009.48 1009.63 1009.72 1009.91 1010.21 1010.31 1010.11 1010.02 1009.90 1009.47 1008.99 1008.67 1008.70 1008.64
1018.98 1018.53 1017.97 1017.51 1017.12 1016.75 1016.35 1016.05 1015.62 1015.11 1014.62 1014.11 1013.65 1013.24 1012.79 1012.32 1011.85 1011.58 1011.32 1011.14 1011.03 1011.01 1011.10 1011.12 1011.13 1011.13 1011.10 1010.37 1008.43 1008.54 1008.85 1009.16 1009.11 1009.35 1009.48 1009.65 1009.62 1009.81 1009.96 1009.77 1009.80 1009.32 1009.22 1008.95 1008.61 1008.48 1008.60
1019.31 1018.76 1018.25 1017.87 1017.47 1017.07 1016.72 1016.29 1015.83 1015.30 1014.78 1014.19 1013.65 1013.20 1012.73 1012.21 1011.72 1011.25 1011.04 1010.83 1010.75 1010.74 1010.77 1010.93 1010.93 1010.96 1010.59 1008.93 1008.03 1008.45 1008.88 1009.00 1008.94 1009.09 1009.28 1009.21 1009.28 1009.66 1009.84 1009.71 1009.36 1009.27 1009.34 1008.96 1008.16 1007.89 1008.55
1019.52 1019.11 1018.68 1018.18 1017.73 1017.35 1016.93 1016.48 1015.96 1015.39 1014.79 1014.21 1013.65 1013.08 1012.57 1012.07 1011.54 1011.05 1010.76 1010.52 1010.47 1010.45 1010.58 1010.74 1010.85 1010.74 1009.64 1008.03 1008.12 1008.37 1008.69 1008.84 1008.83 1008.94 1009.09 1009.14 1009.17 1009.63 1009.90 1009.80 1009.59 1009.66 1009.65 1009.33 1007.69 1007.94 1008.49
1019.73 1019.36 1018.99 1018.51 1018.06 1017.64 1017.16 1016.61 1016.06 1015.53 1014.96 1014.35 1013.67 1013.08 1012.50 1011.84 1011.26 1010.83 1010.54 1010.36 1010.24 1010.37 1010.51 1010.68 1010.82 1010.46 1009.07 1007.98 1008.13 1008.16 1008.37 1008.71 1008.90 1009.02 1009.08 1009.16 1009.46 1009.90 1010.01 1010.36 1010.61 1010.03 1009.96 1009.28 1008.32 1007.90 1008.31
1019.87 1019.57 1019.24 1018.91 1018.42 1017.94 1017.36 1016.77 1016.20 1015.57 1014.96 1014.37 1013.69 1013.00 1012.36 1011.64 1011.06 1010.70 1010.43 1010.14 1010.17 1010.47 1010.58 1010.43 1010.13 1010.33 1008.79 1007.89 1007.66 1007.76 1008.14 1008.60 1009.01 1009.38 1009.54 1009.69 1010.03 1010.20 1010.46 1010.87 1010.66 1010.14 1009.99 1009.12 1008.62 1008.26 1008.46
1020.14 1019.92 1019.65 1019.22 1018.78 1018.20 1017.62 1016.99 1016.35 1015.64 1015.03 1014.45 1013.69 1012.95 1012.32 1011.63 1010.88 1010.54 1010.24 1010.43 1010.83 1010.77 1010.10 1008.92 1008.40 1008.02 1007.59 1007.73 1007.57 1007.97 1008.12 1008.64 1009.07 1009.65 1009.99 1010.08 1010.49 1009.91 1009.73 1009.77 1009.46 1009.43 1009.43 1009.19 1008.23 1007.84 1008.14
1020.48 1020.32 1019.96 1019.48 1018.98 1018.48 1017.88 1017.21 1016.52 1015.80 1015.14 1014.54 1013.81 1013.00 1012.17 1011.46 1010.67 1009.98 1010.27 1010.39 1010.66 1010.90 1009.92 1008.14 1007.93 1007.70 1007.34 1007.37 1007.98 1008.21 1008.36 1009.14 1009.34 1009.72 1009.93 1010.34 1009.75 1009.06 1009.23 1009.52 1009.71 1009.58 1009.34 1008.72 1007.87 1007.47 1007.96
1020.96 1020.63 1020.19 1019.70 1019.19 1018.65 1018.09 1017.44 1016.69 1015.93 1015.24 1014.60 1013.88 1013.07 1012.16 1011.21 1010.41 1010.03 1010.38 1010.70 1010.52 1010.54 1010.42 1008.03 1007.26 1006.97 1007.14 1007.41 1007.67 1007.94 1008.32 1008.70 1009.17 1009.61 1009.74 1009.71 1008.65 1007.97 1008.82 1008.92 1009.25 1008.78 1008.67 1008.38 1008.28 1007.87 1007.79
1021.34 1020.88 1020.42 1019.97 1019.37 1018.75 1018.20 1017.54 1016.80 1016.04 1015.32 1014.64 1013.93 1013.17 1012.35 1011.37 1010.51 1010.48 1010.66 1010.66 1010.43 1010.50 1010.20 1008.17 1007.32 1007.15 1007.14 1007.34 1007.80 1007.59 1007.90 1008.49 1008.81 1008.96 1009.37 1009.03 1007.97 1007.89 1008.01 1008.19 1008.29 1007.98 1007.66 1007.81 1008.10 1008.71 1008.81
1021.58 1021.13 1020.67 1020.15 1019.56 1018.92 1018.27 1017.57 1016.82 1016.05 1015.27 1014.54 1013.81 1013.13 1012.30 1011.87 1011.56 1010.96 1011.12 1010.61 1010.53 1010.68 1009.89 1007.92 1007.60 1007.40 1007.41 1007.87 1008.03 1008.25 1008.25 1008.35 1008.69 1008.80 1009.02 1008.16 1007.41 1007.46 1007.48 1007.00 1007.41 1007.09 1007.25 1007.73 1008.20 1008.77 1009.00
1021.91 1021.46 1020.96 1020.36 1019.73 1019.09 1018.38 1017.59 1016.81 1016.00 1015.14 1014.27 1013.45 1012.86 1012.33 1011.68 1011.39 1011.18 1010.80 1010.67 1010.83 1011.08 1009.44 1008.06 1007.91 1007.88 1008.11 1008.11 1008.19 1008.47 1008.59 1008.73 1008.86 1009.05 1008.83 1008.15 1007.45 1007.24 1006.75 1006.73 1006.84 1007.14 1007.67 1008.22 1008.76 1009.59 1009.57
1022.07 1021.63 1021.13 1020.56 1019.86 1019.18 1018.44 1017.64 1016.79 1015.90 1014.94 1013.89 1012.84 1012.13 1011.97 1011.47 1011.40 1010.79 1010.73 1011.01 1011.45 1010.64 1008.24 1008.80 1008.47 1008.43 1008.46 1008.44 1008.53 1008.62 1009.03 1009.33 1009.47 1009.65 1008.99 1007.98 1007.03 1006.42 1006.33 1007.02 1007.34 1007.51 1008.26 1009.40 1009.93 1010.56 1009.32
1022.19 1021.78 1021.35 1020.73 1020.03 1019.29 1018.46 1017.55 1016.65 1015.73 1014.72 1013.50 1012.24 1011.43 1011.35 1011.16 1010.98 1010.81 1010.98 1011.50 1011.64 1010.68 1010.10 1009.57 1009.30 1008.81 1008.95 1008.54 1008.49 1008.91 1009.51 1010.03 1009.84 1009.74 1009.46 1008.63 1007.04 1006.25 1005.88 1005.99 1006.43 1007.25 1007.79 1008.63 1009.02 1009.64 1009.54
1022.41 1022.00 1021.57 1020.93 1020.28 1019.51 1018.62 1017.61 1016.63 1015.61 1014.47 1013.25 1012.20 1011.87 1011.74 1011.29 1010.87 1011.00 1011.47 1012.03 1012.90 1012.22 1011.81 1011.05 1010.17 1010.04 1010.16 1010.07 1010.38 1009.94 1010.32 1010.45 1010.07 1010.08 1010.60 1008.91 1007.34 1006.16 1005.80 1005.84 1006.32 1007.18 1007.73 1007.49 1008.53 1009.15 1009.96
1022.82 1022.36 1021.84 1021.16 1020.57 1019.74 1018.78 1017.67 1016.59 1015.41 1014.25 1013.21 1013.01 1012.60 1011.83 1010.97 1010.83 1011.30 1011.98 1012.73 1013.30 1013.52 1012.82 1012.11 1012.12 1012.12 1012.42 1012.23 1012.14 1012.16 1012.16 1013.23 1012.51 1012.26 1011.96 1010.20 1008.20 1006.67 1006.26 1006.17 1006.50 1006.82 1007.30 1007.95 1008.61 1009.33 1010.19
1023.13 1022.59 1022.03 1021.51 1020.84 1019.96 1019.00 1018.04 1016.96 1015.57 1013.91 1012.72 1012.94 1012.93 1011.86 1011.00 1011.06 1012.03 1013.35 1014.07 1014.14 1014.44 1013.94 1013.91 1014.08 1014.13 1014.41 1014.68 1014.57 1014.08 1013.50 1014.04 1013.89 1013.40 1012.89 1012.60 1010.85 1008.12 1007.49 1006.78 1006.88 1007.69 1007.91 1008.09 1008.34 1008.81 1009.85
1023.49 1022.91 1022.35 1021.82 1021.08 1020.23 1019.30 1018.30 1017.19 1015.82 1014.17 1013.44 1013.73 1013.71 1012.11 1011.23 1012.56 1013.97 1015.10 1015.31 1015.32 1015.43 1015.39 1015.47 1015.62 1015.92 1016.06 1016.12 1016.01 1015.70 1015.00 1015.36 1015.46 1015.73 1015.25 1014.74 1013.22 1010.78 1008.51 1007.27 1007.00 1007.47 1008.15 1008.75 1009.45 1009.87 1010.94
1023.87 1023.20 1022.62 1022.04 1021.35 1020.59 1019.54 1018.64 1017.69 1016.48 1015.51 1015.28 1015.37 1014.96 1013.09 1012.62 1015.26 1016.45 1016.61 1016.51 1016.44 1016.55 1017.05 1017.08 1017.21 1017.51 1017.76 1017.73 1017.45 1016.61 1016.11 1015.83 1016.15 1016.18 1016.07 1015.82 1014.55 1012.79 1009.81 1008.37 1009.25 1010.52 1012.40 1013.34 1012.83 1012.11 1013.14
1024.20 1023.69 1022.99 1022.31 1021.65 1021.06 1020.19 1019.09 1017.86 1016.65 1015.58 1015.60 1016.36 1016.90 1016.66 1016.50 1017.49 1017.84 1018.07 1017.84 1017.87 1018.02 1018.14 1018.36 1018.24 1018.68 1018.78 1018.76 1018.58 1017.98 1017.64 1017.03 1016.96 1016.78 1016.40 1016.49 1015.71 1015.37 1014.24 1014.01 1014.78 1014.89 1015.99 1016.56 1016.46 1016.65 1017.58
1024.51 1023.97 1023.35 1022.82 1022.26 1021.60 1020.78 1019.81 1018.60 1017.29 1015.96 1016.03 1018.09 1019.79 1019.91 1019.53 1019.20 1019.23 1019.01 1019.23 1019.22 1019.49 1019.49 1019.18 1019.03 1020.04 1020.52 1020.13 1019.52 1018.92 1018.57 1018.13 1017.53 1017.03 1016.59 1017.00 1016.63 1016.40 1015.92 1016.02 1016.90 1018.83 1019.89 1020.00 1020.45 1021.52 1021.68
1024.70 1024.27 1023.73 1023.22 1022.67 1022.11 1021.54 1020.87 1019.79 1018.39 1017.36 1018.41 1020.50 1021.43 1020.92 1020.66 1020.39 1020.24 1020.28 1020.96 1020.91 1020.82 1020.69 1020.29 1020.59 1020.80 1020.91 1020.94 1020.68 1020.07 1019.88 1019.51 1018.55 1017.73 1017.61 1017.82 1017.70 1017.70 1016.99 1017.48 1018.34 1021.59 1022.90 1023.92 1024.63 1025.31 1025.44
1025.37 1024.95 1024.46 1023.97 1023.39 1022.70 1022.29 1021.91 1021.38 1020.43 1019.13 1021.06 1022.09 1022.09 1022.09 1022.00 1021.68 1021.55 1022.07 1021.94 1021.82 1021.62 1021.15 1020.90 1020.89 1020.84 1020.72 1020.53 1020.42 1019.96 1019.64 1019.11 1018.71 1018.69 1018.71 1019.06 1018.66 1019.09 1018.82 1019.08 1020.68 1023.29 1026.27 1027.30 1028.42 1029.10 1029.00
1025.92 1025.52 1025.09 1024.56 1024.07 1023.62 1023.07 1022.75 1022.33 1021.80 1021.29 1022.19 1023.08 1023.24 1023.38 1023.31 1022.84 1022.85 1022.76 1022.64 1022.43 1022.09 1021.82 1021.38 1021.14 1020.99 1020.49 1020.11 1019.55 1018.57 1017.90 1017.77 1018.22 1018.29 1018.47 1018.89 1019.28 1020.16 1020.69 1021.16 1023.77 1028.00 1029.33 1030.10 1030.70 1031.53 1031.78
1026.40 1026.04 1025.65 1025.14 1024.63 1024.28 1023.91 1023.35 1022.78 1022.39 1022.08 1022.69 1023.33 1023.85 1024.25 1024.09 1023.62 1023.30 1023.10 1023.01 1022.78 1022.50 1022.10 1021.59 1021.23 1020.96 1020.47 1020.22 1020.02 1019.10 1018.17 1018.22 1018.83 1018.97 1018.97 1019.42 1020.28 1021.88 1023.40 1025.65 1028.51 1029.82 1030.84 1031.73 1032.25 1033.33 1033.66
1026.92 1026.64 1026.10 1025.58 1025.15 1024.71 1024.28 1023.86 1023.27 1022.76 1022.67 1023.26 1023.63 1023.76 1024.25 1024.65 1024.14 1023.58 1023.39 1023.18 1023.27 1023.03 1022.67 1021.93 1021.35 1020.72 1020.54 1020.69 1020.54 1020.38 1019.83 1019.75 1020.29 1020.52 1020.77 1021.56 1022.23 1023.70 1025.84 1028.45 1030.54 1031.93 1032.45 1032.90 1033.56 1034.76 1035.29
1027.22 1026.89 1026.48 1026.05 1025.57 1025.04 1024.54 1023.99 1023.72 1023.40 1023.22 1023.47 1023.81 1023.66 1024.30 1024.56 1023.89 1023.65 1023.46 1023.29 1023.23 1023.43 1023.39 1022.64 1022.17 1021.34 1020.95 1021.26 1021.27 1021.21 1021.31 1021.31 1022.68 1023.96 1024.74 1025.17 1026.32 1028.06 1029.38 1031.29 1033.02 1033.68 1034.01 1033.92 1035.27 1036.97 1036.40
1027.41 1027.04 1026.71 1026.36 1025.88 1025.27 1024.71 1024.32 1024.03 1023.82 1023.46 1023.54 1023.67 1023.70 1024.14 1024.43 1023.97 1023.35 1023.25 1023.27 1023.31 1023.42 1023.53 1023.12 1022.58 1022.33 1022.11 1022.07 1022.27 1022.62 1023.04 1023.77 1025.38 1027.44 1028.46 1029.94 1031.39 1032.10 1032.52 1033.59 1034.99 1035.20 1035.32 1035.99 1037.28 1036.94 1037.12
1027.69 1027.37 1026.89 1026.34 1025.97 1025.44 1024.97 1024.53 1024.21 1023.80 1023.43 1023.37 1023.64 1023.53 1023.87 1024.41 1023.94 1023.44 1022.88 1022.76 1022.98 1023.00 1023.37 1023.34 1023.31 1023.17 1022.90 1023.01 1023.28 1023.89 1024.93 1025.95 1027.51 1029.66 1031.03 1032.71 1034.18 1034.89 1035.55 1035.88 1036.22 1036.29 1036.79 1037.23 1037.46 1037.92 1037.64
Wind_Speed
16 17 17 18 19 19 19 19 19 19 19 19 18 17 16 13 10 8 9 7 6 6 6 5 5 3 1 1 9 5 9 9 6 5 4 3 3 5 4 4 3 6 5 7 7 6 6
18 17 18 19 20 20 20 20 19 20 20 19 19 18 17 15 12 9 8 7 6 6 5 5 5 2 1 3 2 9 8 6 5 5 5 5 5 5 5 5 3 3 3 7 7 7 5
18 18 19 20 20 20 20 20 20 20 20 20 20 19 18 16 14 11 9 7 6 6 5 5 4 3 2 11 8 8 8 5 4 4 3 5 1 3 3 5 4 3 6 8 9 6 5
18 19 20 20 20 21 20 21 21 22 22 22 22 21 20 18 15 12 10 8 6 5 6 6 4 2 7 2 1 9 5 3 4 4 2 1 4 1 2 3 7 3 0 3 6 9 4
18 19 20 21 21 21 21 22 22 22 22 23 23 23 22 21 18 13 9 8 5 6 5 5 3 3 8 3 4 6 6 5 4 3 2 2 4 5 0 2 4 3 5 6 8 5 6
17 19 20 21 21 22 22 22 23 23 23 24 24 25 24 22 19 13 8 2 5 5 3 3 4 2 4 5 4 6 6 7 3 4 2 2 1 2 1 4 7 6 5 6 5 5 2
18 19 20 21 21 22 22 23 23 24 24 25 25 25 24 22 21 13 3 2 3 1 4 10 7 5 6 2 4 3 4 4 4 2 5 4 4 11 12 12 7 4 4 8 6 6 7
19 19 20 21 21 22 22 23 23 24 24 25 26 25 25 23 24 14 2 4 2 2 8 10 11 6 4 6 3 4 6 6 5 7 3 0 10 11 8 7 9 10 11 10 8 4 8
18 19 20 21 21 22 23 23 24 24 24 25 26 25 25 25 22 4 4 3 1 1 2 6 2 3 5 6 5 9 11 5 5 5 7 8 8 4 8 10 9 11 7 6 9 4 3
18 19 20 21 22 23 23 24 24 25 25 25 26 26 24 27 3 4 3 1 2 2 4 4 0 1 3 3 3 3 9 5 4 10 7 9 15 16 13 6 8 8 7 9 6 3 5
18 19 20 21 22 23 24 25 25 26 25 26 26 25 24 15 3 3 2 3 2 3 5 1 3 2 2 5 2 2 2 3 3 3 2 10 3 5 8 15 9 10 6 5 2 4 2
19 20 21 22 23 24 25 26 26 27 27 27 27 24 18 2 1 2 4 4 3 6 7 2 3 3 2 2 1 2 1 3 2 4 7 10 3 4 7 1 3 4 3 3 4 3 4
18 19 21 22 23 24 25 26 27 28 28 29 28 23 9 4 1 5 3 3 6 5 4 3 2 3 3 4 5 6 5 5 5 1 5 5 11 8 5 3 1 3 6 3 3 1 10
19 20 22 23 24 25 27 28 29 29 30 29 28 16 3 2 4 4 2 5 3 2 6 7 6 5 4 1 6 5 4 2 7 5 3 4 11 10 6 14 9 7 10 8 7 6 5
19 21 22 23 25 26 28 29 30 31 29 29 18 3 2 5 4 3 5 4 3 5 6 7 7 4 6 7 7 6 6 4 2 7 5 4 7 0 3 5 8 3 6 7 3 2 1
20 21 22 24 25 27 29 30 32 31 29 25 2 3 3 6 3 4 5 2 5 6 7 5 4 5 5 8 8 8 6 3 12 11 11 8 12 11 3 3 1 6 3 2 2 5 6
20 21 23 24 26 27 29 30 32 32 31 19 3 4 5 8 4 5 4 3 5 10 11 9 6 5 5 7 5 7 5 5 11 14 9 12 5 5 3 5 9 1 4 5 4 6 8
19 21 23 24 26 29 30 31 33 33 31 10 2 5 6 4 6 4 4 4 6 6 9 7 5 6 3 8 5 7 5 3 11 9 8 8 6 8 11 4 6 5 6 6 10 10 5
18 20 21 23 25 28 31 33 33 33 26 3 3 1 6 6 5 4 5 6 6 6 7 6 5 5 4 3 4 3 6 5 6 12 4 7 4 8 8 3 6 8 9 9 9 4 11
21 21 24 25 24 26 29 31 33 33 28 4 4 4 6 7 2 4 3 3 5 10 4 5 2 4 2 3 4 5 6 6 12 10 7 6 5 7 8 10 9 7 8 9 3 4 7
19 19 20 21 24 24 27 30 32 34 27 5 5 3 0 4 5 5 3 5 5 6 7 7 3 8 6 5 6 5 4 5 3 6 4 2 5 8 11 12 10 8 8 12 5 6 2
23 24 24 27 20 23 23 27 31 33 20 7 5 4 5 3 5 5 8 6 6 5 3 4 5 9 5 5 9 10 6 3 5 5 4 5 6 9 16 13 6 14 13 9 10 8 6
22 24 24 23 27 22 21 21 24 28 15 5 4 4 3 6 5 5 3 4 6 5 6 4 7 7 7 11 6 12 12 15 16 11 13 6 3 2 7 3 8 4 12 9 9 11 5
20 21 22 22 23 24 21 18 18 22 16 4 1 2 4 3 4 3 5 4 5 6 4 5 5 6 5 8 12 14 15 16 11 14 12 9 5 3 6 5 3 4 7 10 12 8 8
21 21 21 21 21 22 20 22 19 15 17 5 3 4 3 2 2 3 6 4 4 6 4 4 4 4 6 6 4 7 4 3 7 8 11 6 0 2 2 4 3 2 4 4 3 2 7
20 20 21 21 20 20 20 22 20 16 11 4 2 2 3 3 2 4 2 3 1 4 6 4 5 7 3 2 3 1 3 3 3 3 7 7 7 5 5 5 5 4 7 6 4 3 4
19 19 19 20 20 18 20 20 20 18 10 2 1 2 3 1 3 2 1 2 3 2 3 4 8 7 4 2 2 1 2 4 4 4 7 7 7 4 4 3 5 4 11 4 4 5 4
19 19 19 17 17 20 19 19 18 17 16 1 2 3 4 1 5 2 2 1 3 1 1 5 4 4 3 5 3 3 3 3 5 2 3 3 3 3 3 4 3 4 4 4 6 4 3
20 19 18 18 19 19 18 18 18 17 15 1 1 2 2 2 5 2 5 5 4 5 2 2 2 0 3 2 3 2 4 4 2 1 6 2 0 1 3 3 4 3 6 4 4 3 5
Wind_Direction
23 21 21 23 22 20 20 17 14 8 6 5 3 0 355 348 339 321 299 283 271 269 265 269 277 305 184 196 250 171 151 147 133 143 200 206 192 177 226 225 228 222 248 256 256 202 216
21 21 23 23 21 19 17 14 9 4 2 1 360 356 354 350 343 326 305 283 262 246 252 263 271 260 161 249 156 151 150 154 167 165 195 199 203 197 263 252 190 257 237 270 271 239 233
22 24 22 20 19 17 14 11 6 2 360 358 357 354 352 346 340 325 306 291 259 238 229 247 247 238 226 235 158 160 159 192 182 177 179 231 196 173 351 295 305 311 316 311 250 219 220
25 22 19 17 16 14 12 9 5 1 358 356 353 352 349 347 340 332 314 294 257 227 222 227 226 229 245 270 167 147 186 132 156 208 131 49 84 70 188 296 335 261 241 299 282 139 192
24 20 17 15 13 11 8 6 3 359 357 354 351 350 347 346 343 335 318 292 230 208 207 202 181 174 268 324 148 193 154 165 148 96 75 90 90 195 90 132 344 275 242 220 307 177 131
21 18 15 12 10 8 6 3 360 358 356 353 350 347 345 343 340 337 330 334 149 142 222 211 268 8 262 222 173 171 195 143 152 128 80 147 128 176 122 118 225 216 228 246 241 212 130
32 21 17 12 9 6 3 1 359 357 355 352 349 344 342 339 336 336 23 87 33 298 220 194 194 217 137 85 46 95 119 123 104 156 181 214 148 214 196 204 222 267 263 257 258 227 166
30 21 15 11 9 5 2 360 358 356 354 351 347 343 338 336 332 322 194 79 108 196 300 252 246 261 136 166 112 199 120 164 178 206 195 192 238 233 204 216 232 257 259 264 282 246 181
27 18 12 10 8 5 1 358 356 354 352 349 346 342 336 333 325 351 72 80 8 44 264 298 231 195 172 140 213 202 153 186 198 204 205 195 223 183 197 238 252 247 221 248 250 287 249
21 17 13 10 7 4 359 356 354 352 349 346 343 340 336 331 15 330 59 20 346 69 32 264 42 358 93 107 264 210 181 185 234 213 213 238 241 239 253 228 197 256 214 239 257 247 246
20 17 13 9 5 1 358 354 351 349 345 341 338 336 332 327 286 38 335 347 360 56 16 111 117 314 92 148 134 10 9 28 229 256 179 245 244 201 228 240 180 243 200 213 222 245 358
22 16 12 7 4 360 356 352 349 346 342 336 332 329 331 107 254 317 332 346 58 52 259 91 114 147 114 222 216 111 94 37 270 259 255 248 260 229 214 86 180 137 101 38 48 84 272
22 15 11 6 3 359 356 352 349 345 341 334 328 324 313 286 323 321 348 57 50 145 313 51 75 160 221 201 213 174 169 175 195 222 256 297 242 226 163 190 27 162 89 304 313 44 240
22 17 12 9 5 360 356 353 350 346 341 335 331 329 168 81 326 355 61 57 170 271 10 355 357 279 218 268 244 182 148 254 244 223 276 237 296 170 199 201 186 192 165 174 209 201 251
21 17 11 9 5 2 358 355 351 347 341 339 334 339 41 312 326 37 76 78 30 26 320 337 338 6 343 21 7 349 213 269 286 208 212 260 261 27 151 159 146 195 184 208 310 194 4
20 18 13 9 5 3 360 357 353 349 342 338 12 0 326 300 22 57 75 90 107 18 324 330 74 53 358 335 7 24 313 347 334 9 340 312 284 248 195 107 11 155 196 128 208 205 216
22 19 18 14 9 5 3 0 356 351 346 339 48 62 265 325 68 47 90 55 60 39 18 24 20 352 7 11 341 330 301 76 13 346 11 5 312 287 100 195 179 144 248 234 194 175 220
26 22 21 15 11 9 6 2 0 357 351 34 21 48 294 9 52 41 48 358 346 17 26 28 86 38 20 7 314 306 313 14 31 30 1 10 296 279 235 249 204 203 254 247 236 241 248
11 11 14 14 10 9 6 2 1 1 2 333 53 317 327 54 75 18 341 344 62 28 29 28 26 57 16 22 301 322 343 4 36 358 13 351 340 310 296 302 25 34 39 1 319 288 242
22 16 14 14 14 10 7 3 1 1 357 82 64 41 343 35 56 95 33 4 25 34 73 342 281 79 336 243 237 299 304 309 347 316 290 179 219 271 291 309 303 305 22 358 316 268 342
19 14 16 14 12 11 11 8 5 2 359 76 26 39 124 5 355 12 29 28 51 20 15 1 37 61 29 303 308 239 303 314 283 287 11 339 286 262 277 290 309 54 15 35 79 344 167
22 28 29 22 19 16 14 12 12 6 7 72 73 27 347 336 2 23 19 2 35 9 321 338 31 340 324 268 276 301 327 249 234 293 29 351 281 320 296 283 286 80 36 75 49 358 34
24 25 24 21 16 22 20 15 18 20 27 69 346 347 88 329 21 51 30 37 13 16 298 9 338 316 303 295 287 277 257 255 249 276 284 269 225 56 264 333 161 68 12 72 86 35 358
20 19 18 18 20 14 21 19 19 30 43 90 1 36 41 360 57 35 39 13 328 319 260 301 338 315 293 307 299 282 253 254 250 256 231 251 261 189 259 326 183 98 62 88 94 53 32
17 18 18 17 19 20 14 17 20 27 34 66 14 57 58 10 320 29 10 357 349 325 311 297 321 272 295 313 304 317 345 112 76 38 40 12 217 306 93 53 112 230 39 356 28 55 15
20 13 9 11 13 14 15 16 15 23 31 60 59 99 79 96 269 329 337 31 350 322 337 276 340 288 320 279 278 293 315 353 49 319 37 33 36 109 16 118 192 232 314 304 224 264 313
12 11 11 4 2 8 9 13 14 6 11 81 288 90 68 14 269 60 214 319 331 338 262 306 333 339 11 329 289 344 341 342 45 39 338 356 359 77 0 112 296 269 313 327 74 263 274
7 8 3 2 359 4 3 4 4 359 354 143 234 163 123 323 284 269 19 295 329 44 340 303 357 358 326 14 341 336 15 27 84 54 13 91 43 360 356 64 300 300 3 105 231 292 251
360 360 1 0 2 355 354 352 352 349 337 343 288 101 99 166 245 293 241 217 213 235 212 308 241 251 275 360 352 22 13 14 91 58 27 9 35 279 143 226 229 272 146 230 174 243 279